Tracking 26006 objects as of 17-Aug-2022
HD Live streaming from Space Station
objects crossing your sky now

OBJECT AD

Track OBJECT AD now!
10-day predictions


NORAD ID: 47959
Int'l Code: 2021-022AD
Perigee: 536.2 km
Apogee: 563.1 km
Inclination: 97.5 °
Period: 95.5 minutes
Semi major axis: 6920 km
RCS: Unknown
Launch date: March 22, 2021
Source: (TBD)
Launch site: TYURATAM MISSILE AND SPACE COMPLEX (TTMTR)
aabbcc
Your satellite tracking list
Your tracking list is empty




NASA's NSSDC Master Catalog

Two Line Element Set (TLE):
1 47959U 21022AD  22229.40951721  .00003510  00000-0  23167-3 0  9998
2 47959  97.5234 127.7135 0019458 300.5831 148.1054 15.07944880 76001
Source of the keplerian elements: AFSPC